Regional Weather Roundup
Issued by NWS

Home | Current Version | Previous Version | Graphics & Text | Print | Product List | Glossary On
Versions: 1 2 3 4 5 6 7 8 9 10 11 12 13 14 15 16 17 18 19 20 21 22 23 24 25 26 27 28 29 30 31 32 33 34 35 36 37 38 39 40 41 42 43 44 45 46 47 48 49 50
000
ASUS45 KCYS 011610
RWRWY

WYOMING REGIONAL WEATHER ROUNDUP
NATIONAL WEATHER SERVICE CHEYENNE WY
1000 AM MDT FRI AUG 01 2014

NOTE:  "FAIR" INDICATES FEW OR NO CLOUDS BELOW 12,000 FEET
WITH NO SIGNIFICANT WEATHER AND/OR OBSTRUCTIONS TO VISIBILITY.

WYZ001-011700-
YELLOWSTONE NATIONAL PARK

CITY           SKY/WX    TMP DP  RH WIND       PRES   REMARKS
LK YELLOWSTONE   N/A     56  45  66 E3        30.45S
W YELLOWSTONE  NOT AVBL

$$
WYZ002>013-054>058-071-098>099-011700-
NORTHERN WYOMING

CITY           SKY/WX    TMP DP  RH WIND       PRES   REMARKS
JACKSON        SUNNY     63  43  48 CALM      30.36F
CODY           SUNNY     77  45  31 NE3       30.25S
GREYBULL       SUNNY     75  41  29 VRB3      30.18S
WORLAND        SUNNY     75  40  28 CALM      30.19F
SHERIDAN       MOSUNNY   83  44  25 N6        30.17R
BUFFALO        SUNNY     82  40  22 N15       30.22S
GILLETTE       MOSUNNY   77  45  32 SW8       30.18S
HULETT         FAIR      79  45  29 MISG      30.18
NEWCASTLE      FAIR      79  39  24 CALM      30.20

$$
WYZ014>020-022>026-101>103-011700-
CENTRAL WYOMING

CITY           SKY/WX    TMP DP  RH WIND       PRES   REMARKS
BIG PINEY      SUNNY     67  39  35 W3        30.39S
PINEDALE       SUNNY     68  36  30 MISG      30.39S
DUBOIS         CLOUDY    64  37  36 CALM      30.39S
LANDER         SUNNY     75  39  27 N5        30.29R
RIVERTON       MOSUNNY   72  43  35 N8        30.28S
CASPER         SUNNY     78  38  23 SW13      30.25F
DOUGLAS        SUNNY     76  44  32 CALM      30.25S

$$
WYZ021-027>030-104>119-011700-
SOUTHERN WYOMING

CITY           SKY/WX    TMP DP  RH WIND       PRES   REMARKS
EVANSTON       MOSUNNY   68  43  40 NE5       30.37S
KEMMERER       SUNNY     70  34  26 NE6       30.39F
FORT BRIDGER   FAIR      64  45  50 CALM      30.40S
ROCK SPRINGS   SUNNY     68  42  38 E6        30.35S
DIXON          FAIR      69  39  34 CALM      30.33S
RAWLINS        SUNNY     66  40  38 E3        30.35S
SARATOGA       FAIR      63  41  45 CALM      30.37S
LARAMIE        SUNNY     65  47  52 S9        30.38S
CHEYENNE       SUNNY     71  45  39 SW9       30.32S
TORRINGTON     SUNNY     74  53  48 CALM      30.21S
PINE BLUFFS    FAIR      75  46  35 W3        30.28S

$$


USA.gov is the U.S. government's official web portal to all federal, state and local government web resources and services.